Voltar ao catálogo

THORAD AGENA D DEB

AtivoLEO
NORAD 42511·DEBRIS·🇺🇸 United States

Lançado Apr 8, 1970 de Vandenberg Space Force Base

Loading…

Próximas Passagens (próximas 24 horas)

TLE

AtualizadoSource: Space-Track

Época: Sep 14, 2026, 03:21 UTC

1 42511U 70025RR  26257.14025621  .00000191  00000-0  72864-3 0  9991
2 42511 100.1651 144.1850 0454093 175.7678 184.7458 12.72842412594297

Acompanhe THORAD AGENA D DEB em tempo real com AllMySat

Download on the App Store